When you browse on this site, cookies collect data to enhance your experience and personalize the content and advertising you see.
Visit our Privacy Policy to learn more. By continuing to use the site, you agree to this use of cookies and data.
EN

Hourly Weather Zelenyi Hai

Today, 7 August, Friday

Time Temperature Precipitation Wind Pressure Humidity
00:00 +22°C° 0 mm 3 mps 756 mmHg 74%
01:00 +22°C° 0 mm 3 mps 757 mmHg 75%
02:00 +21°C° 0 mm 3 mps 757 mmHg 75%
03:00 +21°C° 0 mm 3 mps 757 mmHg 75%
04:00 +20°C° 0 mm 3 mps 757 mmHg 75%
05:00 +20°C° 0 mm 3 mps 757 mmHg 76%
06:00 +22°C° 0 mm 4 mps 757 mmHg 69%
07:00 +25°C° 0 mm 4 mps 757 mmHg 63%
08:00 +27°C° 0 mm 4 mps 757 mmHg 57%
09:00 +29°C° 0 mm 5 mps 757 mmHg 52%
10:00 +30°C° 0 mm 5 mps 757 mmHg 47%
11:00 +33°C° 0 mm 5 mps 757 mmHg 42%
12:00 +33°C° 0 mm 5 mps 757 mmHg 40%
13:00 +33°C° 0 mm 5 mps 756 mmHg 38%
14:00 +34°C° 0 mm 5 mps 756 mmHg 36%
15:00 +33°C° 0 mm 5 mps 756 mmHg 40%
16:00 +33°C° 0 mm 5 mps 756 mmHg 43%
17:00 +32°C° 0 mm 5 mps 755 mmHg 46%
18:00 +29°C° 0 mm 5 mps 756 mmHg 54%
19:00 +27°C° 0 mm 4 mps 756 mmHg 61%
20:00 +26°C° 0 mm 3 mps 756 mmHg 68%
21:00 +25°C° 0 mm 4 mps 756 mmHg 70%
22:00 +23°C° 0 mm 4 mps 756 mmHg 72%
23:00 +22°C° 0 mm 4 mps 756 mmHg 74%

Tomorrow, 8 August, Saturday

Time Temperature Precipitation Wind Pressure Humidity
00:00 +21°C° 0 mm 4 mps 756 mmHg 76%
01:00 +21°C° 0 mm 4 mps 756 mmHg 78%
02:00 +20°C° 0 mm 4 mps 756 mmHg 79%
03:00 +19°C° 0 mm 4 mps 756 mmHg 80%
04:00 +19°C° 0 mm 4 mps 756 mmHg 81%
05:00 +18°C° 0 mm 4 mps 756 mmHg 81%
06:00 +20°C° 0 mm 4 mps 756 mmHg 75%
07:00 +22°C° 0 mm 5 mps 756 mmHg 68%
08:00 +25°C° 0 mm 5 mps 756 mmHg 61%
09:00 +26°C° 0 mm 5 mps 756 mmHg 57%
10:00 +27°C° 0 mm 6 mps 755 mmHg 53%
11:00 +28°C° 0 mm 6 mps 755 mmHg 48%
12:00 +29°C° 0 mm 6 mps 755 mmHg 46%
13:00 +29°C° 0 mm 6 mps 754 mmHg 44%
14:00 +29°C° 0 mm 6 mps 754 mmHg 41%
15:00 +29°C° 0 mm 6 mps 754 mmHg 42%
16:00 +28°C° 0 mm 6 mps 754 mmHg 43%
17:00 +28°C° 0 mm 6 mps 753 mmHg 45%
18:00 +26°C° 0 mm 5 mps 754 mmHg 50%
19:00 +25°C° 0 mm 4 mps 754 mmHg 56%
20:00 +22°C° 0 mm 4 mps 754 mmHg 62%
21:00 +21°C° 0 mm 4 mps 754 mmHg 64%
22:00 +20°C° 0 mm 4 mps 754 mmHg 66%
23:00 +19°C° 0 mm 4 mps 754 mmHg 68%

Day after tomorrow, 9 August, Sunday

Time Temperature Precipitation Wind Pressure Humidity
00:00 +19°C° 0 mm 4 mps 754 mmHg 69%
01:00 +18°C° 0 mm 3 mps 754 mmHg 71%
02:00 +17°C° 0 mm 3 mps 754 mmHg 73%
03:00 +17°C° 0 mm 3 mps 754 mmHg 73%
04:00 +17°C° 0 mm 3 mps 754 mmHg 74%
05:00 +17°C° 0 mm 3 mps 754 mmHg 75%
06:00 +19°C° 0 mm 3 mps 753 mmHg 68%
07:00 +21°C° 0 mm 4 mps 753 mmHg 61%
08:00 +23°C° 0 mm 4 mps 753 mmHg 54%
09:00 +26°C° 0 mm 4 mps 753 mmHg 50%
10:00 +27°C° 0 mm 4 mps 753 mmHg 46%
11:00 +29°C° 0 mm 4 mps 753 mmHg 42%
12:00 +29°C° 0 mm 4 mps 753 mmHg 43%
13:00 +29°C° 0 mm 4 mps 752 mmHg 44%
14:00 +29°C° 0 mm 4 mps 752 mmHg 45%
15:00 +28°C° 0 mm 4 mps 752 mmHg 46%
16:00 +28°C° 0 mm 4 mps 752 mmHg 48%
17:00 +28°C° 0 mm 3 mps 752 mmHg 50%
18:00 +26°C° 0 mm 3 mps 752 mmHg 55%
19:00 +25°C° 0 mm 3 mps 752 mmHg 60%
20:00 +23°C° 0 mm 2 mps 752 mmHg 65%
21:00 +21°C° 0 mm 2 mps 752 mmHg 68%
22:00 +20°C° 0 mm 2 mps 752 mmHg 71%
23:00 +20°C° 0 mm 2 mps 753 mmHg 74%

10 August, Monday

Time Temperature Precipitation Wind Pressure Humidity
00:00 +19°C° 0 mm 2 mps 752 mmHg 76%
01:00 +19°C° 0 mm 2 mps 752 mmHg 78%
02:00 +18°C° 0 mm 2 mps 752 mmHg 80%
03:00 +18°C° 0 mm 2 mps 752 mmHg 81%
04:00 +17°C° 0 mm 2 mps 752 mmHg 81%
05:00 +17°C° 0 mm 2 mps 752 mmHg 82%
06:00 +19°C° 0 mm 2 mps 752 mmHg 73%
07:00 +21°C° 0 mm 2 mps 752 mmHg 65%
08:00 +25°C° 0 mm 2 mps 752 mmHg 56%
09:00 +26°C° 0 mm 2 mps 752 mmHg 51%
10:00 +27°C° 0 mm 2 mps 752 mmHg 45%
11:00 +29°C° 0 mm 3 mps 752 mmHg 40%
12:00 +29°C° 0 mm 3 mps 752 mmHg 39%
13:00 +29°C° 0 mm 3 mps 752 mmHg 38%
14:00 +30°C° 0 mm 2 mps 751 mmHg 37%
15:00 +30°C° 0 mm 2 mps 751 mmHg 38%
16:00 +29°C° 0 mm 2 mps 751 mmHg 39%
17:00 +29°C° 0 mm 2 mps 751 mmHg 40%
18:00 +27°C° 0 mm 2 mps 751 mmHg 45%
19:00 +25°C° 0 mm 2 mps 751 mmHg 51%
20:00 +24°C° 0 mm 2 mps 752 mmHg 57%
21:00 +23°C° 0.1 mm 2 mps 752 mmHg 64%
22:00 +20°C° 0.1 mm 2 mps 752 mmHg 72%
23:00 +19°C° 0.1 mm 2 mps 752 mmHg 79%

11 August, Tuesday

Time Temperature Precipitation Wind Pressure Humidity
00:00 +19°C° 0 mm 2 mps 752 mmHg 81%
01:00 +18°C° 0 mm 2 mps 752 mmHg 83%
02:00 +18°C° 0 mm 2 mps 752 mmHg 85%
03:00 +17°C° 0 mm 2 mps 752 mmHg 83%
04:00 +17°C° 0 mm 2 mps 752 mmHg 81%
05:00 +17°C° 0 mm 2 mps 752 mmHg 79%
06:00 +19°C° 0 mm 3 mps 752 mmHg 71%
07:00 +21°C° 0 mm 3 mps 752 mmHg 63%
08:00 +24°C° 0 mm 3 mps 752 mmHg 55%
09:00 +25°C° 0 mm 3 mps 752 mmHg 49%
10:00 +26°C° 0 mm 3 mps 752 mmHg 43%
11:00 +28°C° 0 mm 3 mps 752 mmHg 38%
12:00 +28°C° 0 mm 3 mps 752 mmHg 35%
13:00 +29°C° 0 mm 3 mps 751 mmHg 33%
14:00 +30°C° 0 mm 3 mps 751 mmHg 31%
15:00 +29°C° 0 mm 3 mps 751 mmHg 32%
16:00 +29°C° 0 mm 3 mps 751 mmHg 33%
17:00 +29°C° 0 mm 3 mps 751 mmHg 34%
18:00 +26°C° 0 mm 3 mps 751 mmHg 39%
19:00 +24°C° 0 mm 2 mps 751 mmHg 44%
20:00 +21°C° 0 mm 2 mps 751 mmHg 50%
21:00 +20°C° 0 mm 2 mps 751 mmHg 51%
22:00 +20°C° 0 mm 2 mps 751 mmHg 53%
23:00 +19°C° 0 mm 2 mps 751 mmHg 54%

12 August, Wednesday

Time Temperature Precipitation Wind Pressure Humidity
00:00 +19°C° 0 mm 2 mps 751 mmHg 55%
01:00 +19°C° 0 mm 2 mps 751 mmHg 55%
02:00 +18°C° 0 mm 2 mps 750 mmHg 55%
03:00 +18°C° 0 mm 2 mps 750 mmHg 56%
04:00 +18°C° 0 mm 2 mps 750 mmHg 56%
05:00 +18°C° 0 mm 2 mps 750 mmHg 56%
06:00 +20°C° 0.1 mm 2 mps 750 mmHg 52%
07:00 +23°C° 0.1 mm 2 mps 750 mmHg 47%
08:00 +25°C° 0.1 mm 3 mps 750 mmHg 43%
09:00 +27°C° 0.1 mm 3 mps 750 mmHg 42%
10:00 +28°C° 0.1 mm 3 mps 750 mmHg 41%
11:00 +29°C° 0.1 mm 4 mps 749 mmHg 40%
12:00 +29°C° 0.1 mm 4 mps 749 mmHg 41%
13:00 +30°C° 0.1 mm 4 mps 749 mmHg 41%
14:00 +30°C° 0.1 mm 5 mps 749 mmHg 42%
15:00 +29°C° 0 mm 5 mps 749 mmHg 43%
16:00 +28°C° 0 mm 5 mps 749 mmHg 43%
17:00 +28°C° 0 mm 5 mps 749 mmHg 44%
18:00 +25°C° 0 mm 4 mps 749 mmHg 49%
19:00 +22°C° 0 mm 4 mps 749 mmHg 53%
20:00 +19°C° 0 mm 3 mps 750 mmHg 57%
21:00 +19°C° 0 mm 3 mps 750 mmHg 62%
22:00 +18°C° 0 mm 3 mps 750 mmHg 66%
23:00 +17°C° 0 mm 3 mps 750 mmHg 70%
Show more